CAPE
136 440 1847 2032 1805 1345 1723 1774 1846 1607 1620 1632 1471 1316 1436 1448 1436 1384 1610 1446 1664 1632 1310 1322 1254 1193 1131 1131 1117 1054 1179 1220 1283 1186 1047 1030 990 813 589 808 315 57 440
201 639 1807 2030 1987 1706 1819 1572 1337 1356 1516 1631 1370 1531 1561 1629 1484 1413 1495 1330 1628 1593 1293 1315 1202 1138 1262 1093 944 1121 946 898 860 593 435 381 437 713 331 615 497 237 369
347 1049 1378 2020 1952 1780 1900 1781 1513 1389 1499 1588 1686 1730 1736 1607 1598 1356 1377 1457 1475 1386 1293 1412 1265 1269 1138 1064 1183 1110 861 752 710 473 440 497 422 622 120 437 369 602 521
449 1212 1360 1976 2008 1869 1804 1681 1538 1408 1607 1815 1751 1689 1678 1556 1435 1324 1259 1482 1389 1374 1495 1331 1232 1306 1036 1232 1130 797 751 608 409 266 417 399 395 605 404 371 50 130 488
661 1194 1473 1924 2045 1856 1771 1569 1504 1668 1939 1713 1672 1736 1779 1521 1320 1171 945 1179 1239 1385 1555 1442 1254 1289 1201 1062 1028 936 812 506 182 122 243 484 468 342 60 8 22 10 436
938 1223 1593 1866 1998 1792 1814 1577 1707 1864 1708 1588 1479 1428 1309 1360 1177 1057 1067 1027 1265 1293 1249 1216 1213 1116 1061 997 807 729 539 202 251 276 126 214 66 52 159 7 242 271 152
980 1331 1601 1879 1883 1834 1763 1555 1692 1832 1811 1518 1420 1185 1488 1209 1080 1082 1096 1050 1098 1108 1089 991 1048 788 730 794 548 485 168 18 498 585 583 547 182 403 167 14 58 35 21
968 1475 1581 1629 1726 1649 1656 1668 1680 1762 1646 1432 1413 1299 1272 1220 1157 800 755 721 927 975 917 822 724 585 452 398 258 40 2 21 276 499 559 547 607 607 362 47 263 16 18
1147 1619 1707 1740 1521 1447 1590 1544 1582 1581 1323 1201 1073 1013 792 785 769 817 760 762 573 493 228 82 345 457 295 44 20 3 2 0 206 318 347 685 513 583 357 209 242 113 5
1353 1496 1558 1645 1558 1693 1639 1284 1246 1126 938 815 535 374 339 314 339 546 390 626 834 589 547 402 53 48 36 5 4 1 1 0 16 117 305 637 753 753 526 229 316 211 99
1265 1353 1341 1409 1410 1413 1493 910 752 578 417 132 83 35 71 162 192 176 118 184 298 257 62 17 13 8 3 3 3 1 0 1 2 16 173 187 727 630 546 280 331 315 349
1056 1153 1268 1279 1094 1113 898 1050 845 451 473 225 155 67 20 7 1 0 0 1 10 8 9 11 7 1 0 0 0 0 0 0 2 3 42 164 662 599 493 330 503 374 307
1014 1100 1106 1044 1069 929 847 800 447 263 208 143 37 1 0 0 0 0 0 0 0 0 0 0 0 0 0 0 0 0 0 0 0 0 5 13 356 422 450 380 449 384 331
1093 925 874 851 829 742 422 339 245 126 52 1 1 0 0 0 0 0 0 0 0 0 0 0 0 0 0 0 0 0 0 0 0 0 0 4 11 401 311 385 429 369 319
919 786 798 765 671 434 344 122 88 40 1 1 0 0 0 0 0 0 0 0 0 0 0 0 0 0 0 0 0 0 0 0 0 0 0 1 5 170 348 337 312 311 281
843 748 709 640 348 303 109 77 0 0 1 0 0 0 0 0 0 0 0 0 0 0 0 0 0 0 0 0 0 0 0 0 0 0 0 0 1 10 148 225 310 276 237
806 650 598 313 187 98 68 24 0 0 0 0 0 0 0 0 0 0 0 0 0 0 0 0 0 0 0 0 0 0 0 0 0 0 0 0 0 0 8 23 192 342 167
706 604 394 180 77 29 28 7 0 0 0 0 0 0 0 0 0 0 0 0 0 0 0 0 0 0 0 0 0 0 0 0 0 0 0 0 0 0 0 5 41 195 131
741 559 260 60 19 0 12 0 0 0 0 0 0 0 0 0 0 0 0 0 0 0 0 0 0 0 0 0 0 0 0 0 0 0 0 0 0 0 0 0 1 1 109
577 405 107 61 0 0 0 0 0 1 0 0 0 0 0 0 0 0 0 0 0 0 0 0 0 0 0 0 0 0 0 0 0 0 0 0 0 0 0 0 0 0 3
386 174 79 0 0 0 0 0 0 0 0 0 0 0 0 0 0 0 0 0 0 0 0 0 0 0 0 0 0 0 0 0 0 0 0 0 0 0 0 0 0 0 0
219 73 17 0 0 0 0 0 0 0 0 0 0 0 0 0 0 0 0 0 0 0 0 0 0 0 0 0 0 0 0 0 0 0 0 0 0 0 0 0 0 0 0
165 54 0 0 0 0 0 0 0 0 0 0 0 0 0 0 0 0 0 0 0 0 0 0 0 0 0 0 0 0 0 0 0 0 0 0 0 0 0 0 0 0 0
69 2 0 0 0 0 0 0 0 0 0 0 0 0 0 0 0 0 0 0 0 0 0 0 0 0 0 0 0 0 0 0 0 0 0 0 0 0 0 0 0 0 0
0 0 0 0 0 1 0 0 0 1 0 0 0 0 0 0 0 0 0 0 0 0 0 0 0 0 0 0 0 0 0 0 0 0 0 0 0 0 0 0 0 0 0
0 0 0 0 0 0 0 1 0 4 4 1 0 0 0 0 0 0 0 0 0 0 0 0 0 0 0 0 0 0 0 0 0 0 0 0 0 0 0 0 0 0 0
CIN
-318 -149 0 0 0 0 0 0 0 0 -1 0 0 0 0 0 0 0 0 0 0 0 0 0 0 0 0 0 0 0 0 0 0 -1 -1 -1 0 0 0 0 -1 -46 -1
-292 -90 -1 0 0 0 0 0 0 -2 -3 -2 0 0 0 0 0 0 0 0 0 0 0 0 0 0 0 0 0 0 0 0 -4 -7 -9 -5 -1 0 0 0 -1 -4 0
-241 -52 -7 0 0 0 0 0 -1 -4 -2 -1 0 0 0 0 0 0 0 0 0 0 0 0 0 0 0 0 0 0 0 0 -3 -10 -6 0 0 0 -2 0 0 0 0
-182 -42 -9 0 0 0 -1 -3 -3 -2 -1 -1 0 0 0 0 0 0 0 0 0 0 0 0 0 0 0 0 0 0 0 -4 -13 -20 0 0 0 0 0 0 -15 -15 0
-108 -39 -9 0 0 0 -1 -3 -4 -1 0 0 0 0 0 0 0 0 0 0 -2 0 0 0 0 0 0 0 0 0 0 -9 -32 -19 0 0 0 0 -25 0 -18 -6 0
-74 -34 -5 0 0 0 -1 -4 -4 0 0 0 -1 -1 -3 0 0 0 0 -1 0 0 0 0 0 0 0 0 0 0 -2 -28 -16 -2 -5 -1 -3 -10 -1 0 0 0 -8
-73 -13 -3 0 0 0 -1 -6 -3 0 0 -1 0 -1 0 0 0 0 0 0 0 0 0 0 0 0 0 0 0 -2 -29 -68 0 0 0 0 0 0 -1 -2 -5 -23 0
-62 -4 -1 -1 0 -1 -2 -5 -3 0 0 0 0 0 0 0 0 -2 -6 -13 -1 0 0 0 0 0 -4 -5 -13 -37 0 -63 -1 0 0 0 -2 0 0 0 0 0 0
-16 0 0 0 -1 -3 -2 -2 -1 0 0 0 0 -1 -3 0 -1 -2 -3 -4 -13 -11 -28 -59 -4 0 -10 -58 -76 0 0 0 -1 -3 -4 0 -3 0 0 0 0 -1 0
-1 0 0 0 0 0 0 -3 -2 -1 -1 -1 -9 -13 -16 -10 -9 -6 -14 -4 0 0 0 -9 -40 -66 -74 0 0 0 0 0 -63 -4 -1 -4 -1 0 0 0 0 0 -2
0 0 0 0 0 0 0 -12 -18 -27 -47 -124 -129 -180 -101 -22 -18 -18 -44 -24 -15 -22 -37 0 0 0 0 0 0 0 0 0 0 -55 -6 -19 -1 0 0 0 0 0 0
-4 0 0 0 0 0 0 0 -1 -26 -8 -65 -74 -97 -146 -62 -24 0 0 0 0 0 0 0 0 0 0 0 0 0 0 0 0 0 -31 -23 0 0 0 -1 0 -1 0
-28 -1 0 -1 0 0 -1 0 -26 -44 -49 -76 -147 0 0 0 0 0 0 0 0 0 0 0 0 0 0 0 0 0 0 0 0 0 0 -5 -1 -1 0 0 0 0 0
-1 -13 -21 -12 -21 -11 -59 -63 -107 -145 -174 0 0 0 0 0 0 0 0 0 0 0 0 0 0 0 0 0 0 0 0 0 0 0 0 0 -134 0 0 0 0 0 0
-5 -13 -16 -19 -26 -64 -78 -185 -218 -250 0 0 0 0 0 0 0 0 0 0 0 0 0 0 0 0 0 0 0 0 0 0 0 0 0 0 0 -17 -1 -1 0 0 0
-7 -19 -36 -21 -75 -87 -225 -237 0 0 0 0 0 0 0 0 0 0 0 0 0 0 0 0 0 0 0 0 0 0 0 0 0 0 0 0 0 0 -7 -1 0 0 0
-4 -33 -42 -97 -137 -234 -268 -327 0 0 0 0 0 0 0 0 0 0 0 0 0 0 0 0 0 0 0 0 0 0 0 0 0 0 0 0 0 0 0 -30 -3 0 0
-19 -32 -67 -134 -255 -343 -361 -366 0 0 0 0 0 0 0 0 0 0 0 0 0 0 0 0 0 0 0 0 0 0 0 0 0 0 0 0 0 0 0 0 -4 0 -2
-15 -27 -89 -213 -307 0 -373 0 0 0 0 0 0 0 0 0 0 0 0 0 0 0 0 0 0 0 0 0 0 0 0 0 0 0 0 0 0 0 0 0 0 0 -12
-13 -47 -183 -210 0 0 0 0 0 0 0 0 0 0 0 0 0 0 0 0 0 0 0 0 0 0 0 0 0 0 0 0 0 0 0 0 0 0 0 0 0 0 0
-19 -80 -143 0 0 0 0 0 0 0 0 0 0 0 0 0 0 0 0 0 0 0 0 0 0 0 0 0 0 0 0 0 0 0 0 0 0 0 0 0 0 0 0
-45 -140 -175 0 0 0 0 0 0 0 0 0 0 0 0 0 0 0 0 0 0 0 0 0 0 0 0 0 0 0 0 0 0 0 0 0 0 0 0 0 0 0 0
-46 -125 0 0 0 0 0 0 0 0 0 0 0 0 0 0 0 0 0 0 0 0 0 0 0 0 0 0 0 0 0 0 0 0 0 0 0 0 0 0 0 0 0
-108 -40 0 0 0 0 0 0 0 0 0 0 0 0 0 0 0 0 0 0 0 0 0 0 0 0 0 0 0 0 0 0 0 0 0 0 0 0 0 0 0 0 0
0 0 0 0 0 0 0 0 0 0 0 0 0 0 0 0 0 0 0 0 0 0 0 0 0 0 0 0 0 0 0 0 0 0 0 0 0 0 0 0 0 0 0
0 0 0 0 0 0 0 0 0 0 0 0 0 0 0 0 0 0 0 0 0 0 0 0 0 0 0 0 0 0 0 0 0 0 0 0 0 0 0 0 0 0 0
Wind_Speed
9 15 16 19 18 18 16 15 15 16 16 15 16 17 16 16 16 16 15 15 16 18 20 21 20 21 21 22 22 21 19 19 18 17 17 17 20 21 21 19 18 19 19
15 17 19 20 20 19 17 17 15 14 14 15 15 16 17 17 17 17 16 16 18 19 20 22 21 21 22 21 21 20 20 19 18 17 16 15 17 20 21 18 18 17 19
21 18 19 20 20 18 17 17 17 15 15 15 15 15 17 17 17 17 16 17 19 19 21 21 22 22 22 21 19 19 19 19 17 15 13 13 15 20 21 17 17 17 20
17 17 18 20 21 19 17 18 17 16 14 15 15 15 16 17 17 18 17 18 20 20 20 21 21 21 20 19 18 19 18 17 14 11 12 13 13 18 20 18 18 18 20
18 17 16 20 20 19 17 18 17 17 16 15 14 15 16 17 18 19 19 18 19 19 19 20 21 19 19 19 18 18 17 15 12 13 12 11 11 16 18 18 18 17 18
18 17 18 20 20 19 17 19 17 17 17 16 15 14 15 18 20 21 20 20 20 21 21 21 20 19 18 18 18 18 16 14 11 13 12 12 13 18 19 18 17 17 17
16 16 17 20 20 19 16 18 17 18 18 17 17 18 18 20 22 22 22 23 22 22 22 22 22 22 20 19 19 18 17 13 12 11 11 11 12 17 20 19 17 17 18
17 17 17 19 20 19 17 17 17 18 18 18 19 20 20 21 21 20 21 23 24 24 23 23 22 21 22 22 21 20 18 12 10 10 10 10 14 17 19 18 17 17 17
15 14 15 16 17 16 17 17 18 18 18 19 19 19 19 17 17 18 18 20 24 24 23 22 21 21 23 23 22 21 20 16 11 7 7 7 15 18 19 17 16 16 17
14 13 14 14 15 15 15 16 17 18 19 19 19 16 15 14 16 19 19 21 21 21 20 21 20 20 21 23 22 22 20 17 12 10 6 6 15 18 16 17 16 18 18
12 13 13 14 14 14 14 12 15 17 19 18 17 18 13 10 14 16 18 21 22 23 24 23 22 21 22 22 22 22 18 8 10 9 6 8 13 16 16 16 15 17 17
18 13 14 14 13 13 9 14 13 15 12 12 13 14 10 11 11 13 16 21 22 24 22 22 21 19 15 9 7 16 7 9 7 9 9 13 14 14 14 14 14 16 16
18 12 15 15 13 13 10 10 7 6 7 9 13 11 12 10 9 8 7 7 8 13 8 11 12 10 13 10 9 9 9 8 5 6 16 25 14 11 13 14 15 16 16
15 16 18 15 14 12 8 8 8 7 8 7 8 12 10 7 8 8 6 7 8 7 11 11 9 13 14 14 11 12 10 7 5 6 13 23 25 12 10 13 15 16 17
14 17 17 15 13 12 13 8 8 9 9 9 9 10 8 9 8 8 7 7 7 9 10 11 10 10 11 12 11 12 11 12 11 7 5 22 25 21 10 9 13 17 18
14 18 18 16 12 13 10 12 9 7 10 8 8 7 10 10 9 9 9 8 8 9 9 9 10 10 11 11 11 11 12 10 11 12 8 9 21 26 21 10 11 17 19
15 17 19 16 14 14 13 11 8 8 8 8 8 10 11 12 12 12 10 9 9 10 14 12 12 11 10 9 12 12 10 11 11 12 9 9 10 19 26 25 11 19 21
17 20 17 15 17 15 14 10 9 8 8 7 7 8 12 14 14 12 10 10 10 9 9 10 10 11 10 10 10 8 9 10 13 12 9 10 9 8 13 28 24 16 19
16 19 18 19 18 15 15 10 11 10 7 6 7 7 11 13 13 11 10 10 11 9 9 10 9 10 11 10 11 10 10 9 10 9 14 13 12 10 9 17 25 26 25
14 17 18 17 17 15 10 9 8 7 6 7 6 7 12 10 11 11 10 11 10 9 9 9 13 9 10 11 11 11 10 8 8 9 10 9 11 13 11 13 11 12 21
14 16 19 18 17 14 11 10 7 8 7 6 6 10 12 12 12 12 10 11 9 10 11 12 12 14 9 8 8 9 9 10 11 9 9 9 11 11 13 11 8 8 9
16 17 17 18 17 15 12 10 6 6 4 5 6 9 10 13 13 12 13 11 11 10 12 12 12 7 4 1 3 3 4 3 8 10 8 9 11 8 10 12 11 12 10
17 17 17 18 19 14 14 10 9 8 6 4 5 6 8 12 11 11 12 10 11 9 9 10 10 9 6 2 4 2 4 3 3 5 9 8 9 8 8 9 11 11 11
17 16 15 15 17 12 15 12 19 12 11 6 9 7 8 10 10 10 9 10 11 8 10 9 6 5 7 7 3 4 5 5 4 4 3 5 7 9 9 7 7 9 9
15 13 14 14 12 13 14 12 11 12 9 9 7 12 9 8 8 10 10 11 11 8 9 10 8 8 3 6 4 4 3 4 4 4 4 3 5 6 6 6 6 7 8
11 13 13 16 11 12 12 12 11 12 12 12 10 10 8 6 6 7 11 9 10 9 10 9 7 6 5 5 4 4 4 3 4 4 4 3 4 4 4 5 6 6 6
Wind_Direction
195 170 169 149 141 141 141 141 134 134 131 129 132 128 125 124 119 115 113 110 109 108 108 106 102 101 103 104 100 97 93 88 85 85 82 86 88 90 86 80 85 84 80
154 166 153 152 144 145 143 143 140 137 135 131 137 131 128 128 124 122 117 117 116 113 112 106 106 104 100 100 100 97 97 90 85 79 81 82 88 88 83 77 83 87 88
155 162 157 154 146 148 145 143 140 142 137 138 131 133 127 128 124 122 119 117 114 112 107 104 103 102 101 100 96 96 95 89 85 82 89 94 93 93 90 85 83 87 88
154 157 161 153 147 147 145 141 142 140 136 128 135 132 128 128 125 121 115 109 107 105 101 100 101 98 99 97 96 96 93 88 80 84 90 98 99 97 95 91 90 85 87
161 157 159 149 147 148 146 142 143 138 131 132 133 129 133 129 125 121 113 105 98 99 102 97 94 92 94 96 95 93 93 87 77 92 90 90 94 90 93 94 95 93 86
161 157 155 146 146 149 147 145 141 133 134 130 126 125 126 125 121 119 113 105 100 100 97 96 94 94 91 94 95 90 83 75 90 92 93 88 95 104 100 95 92 94 93
157 155 152 148 149 150 147 139 137 132 130 129 127 120 119 121 120 115 114 109 105 102 103 100 93 87 88 90 89 81 75 68 91 93 92 96 106 100 103 96 93 94 96
155 156 153 151 151 150 146 136 132 129 128 125 122 121 118 119 120 120 115 115 109 98 94 93 93 93 91 86 79 68 58 62 80 84 87 93 103 99 99 98 96 95 97
154 156 152 154 149 143 140 137 132 130 130 127 123 113 112 111 111 112 114 110 105 106 105 99 90 87 85 82 79 69 56 50 66 67 77 89 99 104 100 100 97 95 100
152 157 154 152 150 147 144 134 132 129 130 130 125 115 104 96 96 100 103 106 109 106 101 98 91 83 77 77 67 64 50 49 49 48 60 85 94 98 99 98 97 95 99
156 162 155 152 149 148 142 131 122 121 118 115 105 101 99 101 100 97 95 95 96 95 95 92 89 81 75 67 68 64 51 36 43 41 31 83 88 93 97 98 98 98 94
169 167 154 152 146 144 136 136 129 127 132 124 119 117 108 97 91 87 82 91 95 95 94 94 89 80 70 67 58 61 58 39 30 36 36 55 82 95 98 98 102 100 99
167 159 153 153 147 142 146 137 133 127 131 126 122 114 113 111 101 97 95 89 86 87 91 90 82 76 76 70 58 63 66 55 40 30 35 39 45 88 98 107 110 109 105
176 160 153 155 149 145 137 143 134 128 125 120 121 126 125 111 104 103 98 101 107 110 106 96 89 87 79 72 65 63 62 58 53 45 35 36 30 40 106 116 116 114 108
164 162 150 154 148 146 142 137 134 135 130 127 130 130 121 118 110 108 112 115 116 116 108 101 95 88 80 75 67 68 61 55 48 48 41 39 31 27 106 111 123 118 114
165 159 147 153 146 146 140 139 137 124 128 128 129 124 120 120 119 124 129 124 115 113 107 104 105 100 91 89 74 68 66 55 49 47 43 34 35 34 49 55 126 123 113
174 154 153 146 143 141 138 135 128 130 129 129 127 124 127 124 137 136 132 128 122 116 113 108 102 96 92 85 80 70 58 49 48 46 32 41 26 31 36 19 151 123 106
166 161 158 149 144 143 142 140 132 134 130 129 127 127 131 135 141 137 133 131 130 123 118 113 112 101 92 84 81 62 58 52 52 47 38 41 34 25 24 32 51 93 118
170 161 157 149 146 145 142 135 135 130 126 119 124 126 134 137 142 136 133 134 135 126 122 120 112 109 107 95 86 74 61 50 48 40 43 42 37 32 28 34 41 39 73
169 163 154 157 147 140 136 124 108 122 114 133 131 132 134 137 136 134 134 136 136 128 125 123 115 104 105 106 93 76 62 49 40 35 42 42 40 38 35 36 38 37 49
169 160 161 152 154 144 140 142 137 154 146 136 142 141 139 144 144 143 140 141 142 138 136 129 118 120 111 117 105 83 65 55 49 39 34 38 39 33 39 36 36 36 38
163 161 162 156 159 161 159 160 137 142 117 128 139 141 145 153 153 151 151 151 146 137 140 146 146 135 103 44 115 114 123 92 51 37 36 38 39 31 30 35 39 42 39
168 166 165 165 163 161 155 129 107 106 94 93 144 143 152 154 156 156 156 151 149 152 156 158 156 142 135 83 51 118 140 142 130 17 37 39 42 44 39 31 33 37 41
167 166 170 168 156 149 149 151 160 165 167 174 169 147 146 153 154 151 150 154 155 154 160 163 159 139 134 139 120 52 63 119 148 144 55 39 48 46 41 39 32 30 29
157 163 160 153 149 155 156 161 169 178 167 137 143 145 146 147 152 152 156 158 158 160 161 162 160 159 128 145 140 151 85 75 76 135 138 131 77 43 42 42 48 42 30
144 146 152 148 141 151 153 157 176 178 155 150 161 156 154 153 150 152 156 160 156 157 163 164 157 156 142 127 137 145 154 156 156 137 120 121 115 61 51 47 46 49 45